Regional Weather Roundup
Issued by NWS

Home | Current Version | Previous Version | Graphics & Text | Print | Product List | Glossary On
Versions: 1 2 3 4 5 6 7 8 9 10 11 12 13 14 15 16 17 18 19 20 21 22 23 24 25 26 27 28 29 30 31 32 33 34 35 36 37 38 39 40 41 42 43 44 45 46 47 48 49 50
000
ASUS43 KOAX 090910
RWRNE

WEATHER ROUNDUP FOR NEBRASKA
NATIONAL WEATHER SERVICE OMAHA NE
300 AM CST FRI DEC 09 2016

NOTES: SATELLITE DATA IS BEING USED TO AUGMENT CLOUD COVER ABOVE
       12000 FEET.
       "FAIR" INDICATES FEW OR NO CLOUDS BELOW 12,000 FEET WITH NO
       SIGNIFICANT WEATHER AND/OR OBSTRUCTIONS TO VISIBILITY.

  * THESE STATIONS DO NOT REPORT WEATHER SUCH AS RAIN...SNOW OR FOG.

NEZ001>004-019>022-054>056-091000-
NEBRASKA PANHANDLE

CITY           SKY/WX    TMP DP  RH WIND       PRES   REMARKS
SCOTTSBLUFF    CLOUDY     9   3  77 E15       30.18F WCI  -8
ALLIANCE       CLOUDY     9   3  77 SE14      30.21F WCI  -7
CHADRON        CLOUDY     2  -5  72 NE6       30.25F WCI  -9
KIMBALL        CLOUDY    13   9  81 S17       30.13F WCI  -3
SIDNEY         CLOUDY    12   5  73 S15       30.21F WCI  -4
$$

NEZ057>060-069>072-079>082-091000-
SOUTHWEST NEBRASKA

CITY           SKY/WX    TMP DP  RH WIND       PRES   REMARKS
NORTH PLATTE   CLOUDY     3  -2  79 SE8       30.42F WCI -10
IMPERIAL       CLOUDY     9   1  70 SE8       30.36F WCI  -3
LEXINGTON      CLOUDY     4  -1  80 E3        30.48F
MCCOOK         CLOUDY     2  -3  80 CALM      30.46F
OGALLALA       CLOUDY    10   3  74 SE8       30.34F WCI  -3
$$

NEZ005>010-023>029-035>040-094-091000-
NORTH CENTRAL NEBRASKA

CITY           SKY/WX    TMP DP  RH WIND       PRES   REMARKS
VALENTINE      CLOUDY     0  -6  76 CALM      30.45F
AINSWORTH      CLOUDY     3  -1  83 SE3       30.45F
BROKEN BOW     CLOUDY    -2  -7  79 CALM      30.47F
O`NEILL        CLOUDY     1  -3  81 CALM      30.54F
ORD            CLOUDY    -2  -8  76 CALM      30.53F
THEDFORD       CLOUDY    -1  -5  80 CALM      30.41F
$$

NEZ041-046>049-061>064-073>077-083>087-091000-
SOUTH CENTRAL NEBRASKA

CITY           SKY/WX    TMP DP  RH WIND       PRES   REMARKS
GRAND ISLAND   CLOUDY     5   1  83 CALM      30.57F
AURORA         CLOUDY     6   0  75 CALM      30.58S
HASTINGS       CLOUDY     5  -1  76 E6        30.56F WCI  -6
HEBRON         PTCLDY     5   2  86 CALM      30.61F
HOLDREGE       CLOUDY     5  -1  77 CALM      30.50F
KEARNEY *      CLOUDY     5  -2  72 CALM      30.53F
YORK           PTCLDY     5   0  78 CALM      30.59F
$$

NEZ011>018-030>034-042>045-091000-
NORTHEAST NEBRASKA

CITY           SKY/WX    TMP DP  RH WIND       PRES   REMARKS
NORFOLK        CLOUDY     1  -3  83 W5        30.60R WCI  -9
ALBION         PTCLDY     0  -4  82 CALM      30.57F
BLAIR          CLEAR      9   4  82 N8        30.60F WCI  -4
FREMONT        CLEAR      4   0  84 W5        30.63S WCI  -5
TEKAMAH        PTCLDY     7   1  76 N3        30.65S
WAYNE          CLEAR      0  -4  85 CALM      30.61S
$$

NEZ050>053-065>068-078-088>093-091000-
SOUTHEAST NEBRASKA

CITY           SKY/WX    TMP DP  RH WIND       PRES   REMARKS
LINCOLN        CLEAR      5   1  83 CALM      30.66S
OMAHA EPPLEY   CLEAR     10   3  73 N7        30.65S WCI  -1
BEATRICE       CLEAR      6   2  83 CALM      30.63S
FALLS CITY     CLEAR     10   5  80 W5        30.65R WCI   2
NEBRASKA CITY  CLEAR     11   2  67 N5        30.64S WCI   3
PLATTSMOUTH    CLEAR      9   2  73 NW6       30.63S WCI   0
$$

NEZ044-045-051>053-067-091000-
OMAHA AREA

CITY           SKY/WX    TMP DP  RH WIND       PRES   REMARKS
OMAHA EPPLEY   CLEAR     10   3  73 N7        30.65S WCI  -1
BLAIR          CLEAR      9   4  82 N8        30.60F WCI  -4
FREMONT        CLEAR      4   0  84 W5        30.63S WCI  -5
MILLARD        CLEAR     13   6  74 NW3       30.65S
OFFUTT AFB     CLEAR      8   5  85 W6        30.64S WCI  -2
PLATTSMOUTH    CLEAR      9   2  73 NW6       30.63S WCI   0
WAHOO          FAIR       6   2  81 NW5       30.63S WCI  -2
$$




USA.gov is the U.S. government's official web portal to all federal, state and local government web resources and services.